When you browse on this site, cookies collect data to enhance your experience and personalize the content and advertising you see.
Visit our Privacy Policy to learn more. By continuing to use the site, you agree to this use of cookies and data.
  • In Deutschland
  • Länderverzeichnis
  • Für 7 Tage
  • Wassertemperatur
  • Satellitenkarten
  • Wetterkarte
  • Widgets
  • user-avatar
    Anmelden

    Stündliche Wetter Tirana

    Heute, 19 Juni, Mittwoch

    Zeit Temperatur Niederschläge Wind Luftdruck Luftfeuchtigkeit
    00:00 +21°C° 0 mm 0 m/S 752 mmHg 81%
    01:00 +21°C° 0 mm 0 m/S 752 mmHg 80%
    02:00 +20°C° 0 mm 0 m/S 752 mmHg 79%
    03:00 +22°C° 0 mm 1 m/S 752 mmHg 78%
    04:00 +22°C° 0 mm 1 m/S 752 mmHg 76%
    05:00 +23°C° 0 mm 1 m/S 752 mmHg 71%
    06:00 +23°C° 0 mm 0 m/S 752 mmHg 66%
    07:00 +24°C° 0 mm 0 m/S 752 mmHg 61%
    08:00 +28°C° 0 mm 1 m/S 752 mmHg 57%
    09:00 +29°C° 0 mm 1 m/S 752 mmHg 53%
    10:00 +31°C° 0 mm 2 m/S 752 mmHg 49%
    11:00 +31°C° 0 mm 2 m/S 752 mmHg 49%
    12:00 +31°C° 0 mm 3 m/S 752 mmHg 50%
    13:00 +32°C° 0 mm 4 m/S 751 mmHg 50%
    14:00 +32°C° 0 mm 4 m/S 751 mmHg 51%
    15:00 +30°C° 0 mm 4 m/S 751 mmHg 52%
    16:00 +30°C° 0 mm 4 m/S 751 mmHg 53%
    17:00 +28°C° 0 mm 3 m/S 751 mmHg 60%
    18:00 +27°C° 0 mm 2 m/S 751 mmHg 68%
    19:00 +25°C° 0 mm 1 m/S 751 mmHg 75%
    20:00 +24°C° 0 mm 1 m/S 751 mmHg 76%
    21:00 +24°C° 0 mm 1 m/S 751 mmHg 78%
    22:00 +21°C° 0 mm 0 m/S 751 mmHg 79%
    23:00 +22°C° 0 mm 1 m/S 751 mmHg 80%

    Morgen, 20 Juni, Donnerstag

    Zeit Temperatur Niederschläge Wind Luftdruck Luftfeuchtigkeit
    00:00 +22°C° 0 mm 1 m/S 751 mmHg 81%
    01:00 +22°C° 0 mm 1 m/S 751 mmHg 83%
    02:00 +21°C° 0 mm 1 m/S 751 mmHg 83%
    03:00 +21°C° 0 mm 1 m/S 751 mmHg 84%
    04:00 +21°C° 0 mm 1 m/S 751 mmHg 84%
    05:00 +22°C° 0 mm 1 m/S 751 mmHg 78%
    06:00 +24°C° 0 mm 1 m/S 751 mmHg 72%
    07:00 +26°C° 0 mm 1 m/S 751 mmHg 66%
    08:00 +27°C° 0 mm 1 m/S 751 mmHg 60%
    09:00 +28°C° 0 mm 2 m/S 751 mmHg 55%
    10:00 +30°C° 0 mm 2 m/S 751 mmHg 49%
    11:00 +30°C° 0 mm 2 m/S 751 mmHg 49%
    12:00 +30°C° 0 mm 3 m/S 751 mmHg 49%
    13:00 +32°C° 0 mm 4 m/S 751 mmHg 49%
    14:00 +30°C° 0 mm 3 m/S 751 mmHg 51%
    15:00 +30°C° 0 mm 3 m/S 751 mmHg 54%
    16:00 +29°C° 0 mm 3 m/S 750 mmHg 56%
    17:00 +27°C° 0 mm 3 m/S 751 mmHg 62%
    18:00 +26°C° 0 mm 2 m/S 751 mmHg 68%
    19:00 +25°C° 0 mm 1 m/S 751 mmHg 74%
    20:00 +24°C° 0 mm 1 m/S 751 mmHg 76%
    21:00 +23°C° 0 mm 1 m/S 751 mmHg 79%
    22:00 +20°C° 0 mm 0 m/S 752 mmHg 81%
    23:00 +20°C° 0 mm 0 m/S 752 mmHg 82%

    übermorgen, 21 Juni, Freitag

    Zeit Temperatur Niederschläge Wind Luftdruck Luftfeuchtigkeit
    00:00 +22°C° 0 mm 1 m/S 752 mmHg 82%
    01:00 +22°C° 0 mm 1 m/S 752 mmHg 83%
    02:00 +21°C° 0 mm 1 m/S 752 mmHg 84%
    03:00 +21°C° 0 mm 1 m/S 752 mmHg 84%
    04:00 +21°C° 0 mm 1 m/S 752 mmHg 85%
    05:00 +23°C° 0 mm 1 m/S 752 mmHg 79%
    06:00 +24°C° 0 mm 1 m/S 752 mmHg 73%
    07:00 +26°C° 0 mm 1 m/S 752 mmHg 67%
    08:00 +27°C° 0 mm 1 m/S 752 mmHg 61%
    09:00 +29°C° 0 mm 2 m/S 752 mmHg 56%
    10:00 +31°C° 0 mm 2 m/S 752 mmHg 51%
    11:00 +31°C° 0 mm 2 m/S 752 mmHg 51%
    12:00 +31°C° 0 mm 3 m/S 752 mmHg 51%
    13:00 +32°C° 0 mm 4 m/S 752 mmHg 51%
    14:00 +32°C° 0 mm 4 m/S 752 mmHg 51%
    15:00 +32°C° 0 mm 4 m/S 752 mmHg 51%
    16:00 +30°C° 0 mm 3 m/S 751 mmHg 51%
    17:00 +28°C° 0 mm 3 m/S 752 mmHg 57%
    18:00 +27°C° 0 mm 2 m/S 752 mmHg 64%
    19:00 +25°C° 0 mm 1 m/S 752 mmHg 70%
    20:00 +24°C° 0 mm 1 m/S 752 mmHg 73%
    21:00 +23°C° 0 mm 1 m/S 753 mmHg 75%
    22:00 +23°C° 0 mm 1 m/S 753 mmHg 78%
    23:00 +22°C° 0 mm 1 m/S 753 mmHg 79%

    22 Juni, Samstag

    Zeit Temperatur Niederschläge Wind Luftdruck Luftfeuchtigkeit
    00:00 +22°C° 0 mm 1 m/S 753 mmHg 81%
    01:00 +22°C° 0 mm 1 m/S 753 mmHg 82%
    02:00 +22°C° 0 mm 1 m/S 753 mmHg 83%
    03:00 +22°C° 0 mm 1 m/S 752 mmHg 84%
    04:00 +22°C° 0 mm 1 m/S 752 mmHg 84%
    05:00 +24°C° 0 mm 1 m/S 753 mmHg 77%
    06:00 +25°C° 0 mm 1 m/S 753 mmHg 71%
    07:00 +27°C° 0 mm 1 m/S 753 mmHg 64%
    08:00 +29°C° 0 mm 1 m/S 753 mmHg 58%
    09:00 +31°C° 0 mm 1 m/S 753 mmHg 52%
    10:00 +32°C° 0 mm 1 m/S 753 mmHg 47%
    11:00 +33°C° 0 mm 1 m/S 753 mmHg 43%
    12:00 +35°C° 0 mm 2 m/S 753 mmHg 39%
    13:00 +36°C° 0 mm 2 m/S 753 mmHg 36%
    14:00 +35°C° 0 mm 2 m/S 752 mmHg 40%
    15:00 +35°C° 0 mm 3 m/S 752 mmHg 43%
    16:00 +34°C° 0 mm 3 m/S 752 mmHg 47%
    17:00 +31°C° 0 mm 3 m/S 752 mmHg 53%
    18:00 +29°C° 0 mm 2 m/S 752 mmHg 59%
    19:00 +28°C° 0 mm 1 m/S 752 mmHg 66%
    20:00 +27°C° 0 mm 2 m/S 752 mmHg 65%
    21:00 +26°C° 0 mm 2 m/S 752 mmHg 64%
    22:00 +26°C° 0 mm 2 m/S 753 mmHg 64%
    23:00 +26°C° 0 mm 2 m/S 752 mmHg 64%

    23 Juni, Sonntag

    Zeit Temperatur Niederschläge Wind Luftdruck Luftfeuchtigkeit
    00:00 +25°C° 0 mm 2 m/S 752 mmHg 64%
    01:00 +25°C° 0 mm 2 m/S 752 mmHg 65%
    02:00 +25°C° 0 mm 2 m/S 752 mmHg 64%
    03:00 +24°C° 0 mm 2 m/S 752 mmHg 62%
    04:00 +24°C° 0 mm 2 m/S 752 mmHg 61%
    05:00 +26°C° 0 mm 2 m/S 752 mmHg 57%
    06:00 +28°C° 0 mm 1 m/S 753 mmHg 52%
    07:00 +30°C° 0 mm 1 m/S 753 mmHg 47%
    08:00 +31°C° 0 mm 2 m/S 753 mmHg 45%
    09:00 +32°C° 0 mm 2 m/S 753 mmHg 43%
    10:00 +34°C° 0 mm 3 m/S 753 mmHg 40%
    11:00 +34°C° 0 mm 3 m/S 753 mmHg 41%
    12:00 +34°C° 0 mm 3 m/S 753 mmHg 41%
    13:00 +35°C° 0 mm 3 m/S 753 mmHg 42%
    14:00 +34°C° 0 mm 3 m/S 753 mmHg 44%
    15:00 +34°C° 0 mm 3 m/S 753 mmHg 47%
    16:00 +33°C° 0 mm 3 m/S 753 mmHg 50%
    17:00 +30°C° 0 mm 2 m/S 753 mmHg 58%
    18:00 +28°C° 0 mm 2 m/S 753 mmHg 66%
    19:00 +27°C° 0 mm 1 m/S 753 mmHg 74%
    20:00 +26°C° 0 mm 1 m/S 753 mmHg 76%
    21:00 +25°C° 0 mm 1 m/S 754 mmHg 78%
    22:00 +24°C° 0 mm 1 m/S 754 mmHg 80%
    23:00 +24°C° 0 mm 1 m/S 754 mmHg 80%

    24 Juni, Montag

    Zeit Temperatur Niederschläge Wind Luftdruck Luftfeuchtigkeit
    00:00 +24°C° 0 mm 1 m/S 754 mmHg 80%
    01:00 +22°C° 0 mm 0 m/S 754 mmHg 80%
    02:00 +23°C° 0 mm 1 m/S 754 mmHg 81%
    03:00 +23°C° 0 mm 1 m/S 754 mmHg 81%
    04:00 +23°C° 0 mm 1 m/S 754 mmHg 82%
    05:00 +25°C° 0 mm 1 m/S 754 mmHg 75%
    06:00 +26°C° 0 mm 1 m/S 754 mmHg 69%
    07:00 +28°C° 0 mm 1 m/S 755 mmHg 62%
    08:00 +30°C° 0 mm 1 m/S 755 mmHg 57%
    09:00 +31°C° 0 mm 2 m/S 755 mmHg 52%
    10:00 +34°C° 0 mm 3 m/S 755 mmHg 47%
    11:00 +34°C° 0 mm 4 m/S 754 mmHg 47%
    12:00 +35°C° 0 mm 4 m/S 754 mmHg 47%
    13:00 +35°C° 0 mm 5 m/S 754 mmHg 47%
    14:00 +35°C° 0 mm 6 m/S 754 mmHg 49%
    15:00 +34°C° 0 mm 6 m/S 754 mmHg 51%
    16:00 +33°C° 0 mm 6 m/S 754 mmHg 53%
    17:00 +32°C° 0 mm 6 m/S 754 mmHg 58%
    18:00 +29°C° 0 mm 6 m/S 754 mmHg 64%
    19:00 +28°C° 0 mm 6 m/S 754 mmHg 69%
    20:00 +27°C° 0 mm 6 m/S 754 mmHg 70%
    21:00 +27°C° 0 mm 5 m/S 755 mmHg 71%
    22:00 +26°C° 0 mm 4 m/S 755 mmHg 72%
    23:00 +26°C° 0 mm 3 m/S 755 mmHg 72%
    Mehr zeigen